Погода в Берген-ан-Зее

Нидерланды     52°39′37″N   4°37′53″E
темп.,
°C
ветер,
м/с
пор.,
м/с
влажн.,
%
обл.,
%
осадки,
мм/ч
давл.,
гПа
погр.,
м
18 января, пн
пн1801:00+4з488947 0.1 1022189
04:00+5з6109167 0.0 1021356
07:00+5зюз6128883 0.0 1020505
10:00+6з71186100 0.0 1019740
13:00+7зюз91281100 0.1 1018960
16:00+6з81182100 0.1 1017843
19:00+6з71181100 0.3 1016737
22:00+6зюз6128597 0.1 1014575
19 января, вт
вт1901:00+6ююз8149498 1.0 1012651
04:00+6ююз121891100 4.1 1006764
07:00+8юз101696100 8.7 1002636
10:00+9зюз91696100 3.2 1000640
13:00+10зюз152284100 5.4 10001025
16:00+9зюз122086100 0.1 10001250
19:00+9юз142190100 0.9 9991109
22:00+9юз172588100 2.4 9971099
20 января, ср
ср2001:00+8юз152384100 2.6 996898
04:00+8юз162488100 0.7 9941010
07:00+8юз152388100 1.9 992974
10:00+8юз152388100 0.5 992849
13:00+8ююз132185100 0.6 992873
16:00+9ююз111871100 0.0 990839
19:00+7ююз101970100 0.0 990844
22:00+8ююз112074100 0.1 988939
21 января, чт
чт2101:00+9ю112075100 0.3 9851108
04:00+9ю14257694 0.1 9801450
07:00+7юз13197497 2.2 9821469
10:00+6юз11177133 0.0 9851358
13:00+8юз14206717 0.0 9861756
16:00+7юз15227467 0.1 9851520
19:00+7юз14207679 0.4 9851263
22:00+6юз9157838 0.3 984767
22 января, пт
пт2201:00+5зюз6127861 0.3 984591
04:00+5зюз71279100 0.0 985622
07:00+5зюз9147767 0.0 986778
10:00+5зюз9137452 0.1 9881154
13:00+5зюз10137170 0.1 9911335
16:00+5зюз8127295 0.1 9931266
19:00+4зюз6107685 0.4 994509
22:00+4зюз597899 0.6 995284